Back to catalog

STARLINK-32499

AliveCommunicationsVLEO
NORAD 61959·PAYLOAD·🇺🇸 United States

Launched Nov 14, 2024 from Cape Canaveral Space Force Station

Loading…

Next Passes (next 24 hours)

TLE

FreshSource: CelesTrak SupGP

Epoch: Sep 14, 2026, 22:28 UTC

1 61959C 24210A   26257.93659722 -.00031187  00000+0 -11294-2 0  2571
2 61959  42.9993 190.6587 0001076 264.3827 233.1286 15.27598736    19

Track STARLINK-32499 in real time with AllMySat

Download on the App Store